Powrót do katalogu

STARLINK-30494

AktywnyŁącznośćVLEO
NORAD 57970·PAYLOAD·🇺🇸 United States

Wystrzelony Sep 30, 2023 z Cape Canaveral Space Force Station

Loading…

Następne Przeloty (najbliższe 24 godziny)

TLE

ŚwieżeSource: CelesTrak SupGP

Epoka: Sep 15, 2026, 01:51 UTC

1 57970C 23151G   26258.07756944  .00000536  00000+0  19416-4 0  2581
2 57970  43.0021 200.9919 0001475 267.4559 286.4481 15.27581099    16

Śledź STARLINK-30494 w czasie rzeczywistym z AllMySat

Download on the App Store